This is the latest recevied weather packets stored in our database for station/object N7CEE-2. If no packets are shown the sender has not sent any weather packets the latest 10 day(s).
| Time | Temp. | Humidity | Pressure | Rain* | Wind** | Luminosity | Snow |
|---|---|---|---|---|---|---|---|
| 1777494316 | 28.89° C | 17% | 1015.2 hPa | 0 mm | - | 945 W/m² | - |
| 1777494012 | 29.44° C | 17% | 1015.4 hPa | 0 mm | - | 950 W/m² | - |
| 1777493711 | 29.44° C | 18% | 1015.5 hPa | 0 mm | - | 957 W/m² | - |
| 1777493408 | 28.89° C | 18% | 1015.7 hPa | 0 mm | - | 958 W/m² | - |
| 1777493104 | 29.44° C | 18% | 1015.6 hPa | 0 mm | - | 962 W/m² | - |
| 1777492801 | 28.33° C | 18% | 1015.8 hPa | 0 mm | - | 965 W/m² | - |
| 1777492496 | 28.89° C | 18% | 1015.8 hPa | 0 mm | - | 972 W/m² | - |
| 1777492193 | 28.89° C | 18% | 1015.9 hPa | 0 mm | - | 974 W/m² | - |
| 1777491890 | 28.89° C | 18% | 1016 hPa | 0 mm | - | 976 W/m² | - |
| 1777491586 | 28.33° C | 17% | 1016.2 hPa | 0 mm | - | 978 W/m² | - |
| 1777491284 | 28.33° C | 18% | 1016.1 hPa | 0 mm | - | 980 W/m² | - |
| 1777490981 | 28.33° C | 18% | 1016.4 hPa | 0 mm | - | 981 W/m² | - |
| 1777490676 | 28.89° C | 18% | 1016.6 hPa | 0 mm | - | 982 W/m² | - |
| 1777490372 | 28.33° C | 18% | 1016.4 hPa | 0 mm | - | 981 W/m² | - |
| 1777490070 | 28.89° C | 18% | 1016.4 hPa | 0 mm | - | 982 W/m² | - |
| 1777489767 | 29.44° C | 18% | 1016.2 hPa | 0 mm | - | 979 W/m² | - |
| 1777489465 | 27.78° C | 18% | 1016.5 hPa | 0 mm | - | 979 W/m² | - |
| 1777489161 | 28.89° C | 19% | 1016.5 hPa | 0 mm | - | 976 W/m² | - |
| 1777488859 | 28.89° C | 18% | 1016.6 hPa | 0 mm | - | 973 W/m² | - |
| 1777488555 | 28.33° C | 18% | 1016.5 hPa | 0 mm | - | 968 W/m² | - |
| 1777488253 | 30° C | 17% | 1017 hPa | 0 mm | - | 962 W/m² | - |
| 1777487951 | 28.33° C | 19% | 1017.1 hPa | 0 mm | - | 960 W/m² | - |
| 1777487649 | 27.78° C | 19% | 1017.2 hPa | 0 mm | - | 955 W/m² | - |
| 1777487346 | 28.33° C | 19% | 1017.2 hPa | 0 mm | - | 950 W/m² | - |
| 1777487044 | 28.33° C | 20% | 1017.2 hPa | 0 mm | - | 941 W/m² | - |
* Rain latest hour (hover to see other rain measurements)
** Current wind speed in m/s (hover to see current wind gust speed)